TimeEDT,TemperatureF,Dew PointF,Humidity,Sea Level PressureIn,VisibilityMPH,Wind Direction,Wind SpeedMPH,Gust SpeedMPH,PrecipitationIn,Events,Conditions,WindDirDegrees,DateUTC
12:53 AM,70.0,66.9,90,29.89,10.0,Variable,5.8,-,N/A,,Clear,0,2013-08-03 04:53:00
1:53 AM,70.0,66.9,90,29.87,10.0,South,3.5,-,N/A,,Mostly Cloudy,190,2013-08-03 05:53:00
2:53 AM,70.0,66.0,87,29.85,10.0,Calm,Calm,-,N/A,,Clear,0,2013-08-03 06:53:00
3:53 AM,69.1,64.9,87,29.84,10.0,South,3.5,-,N/A,,Clear,190,2013-08-03 07:53:00
4:53 AM,70.0,64.9,84,29.84,10.0,Variable,3.5,-,N/A,,Clear,0,2013-08-03 08:53:00
5:53 AM,69.1,66.0,90,29.86,8.0,SSW,4.6,-,N/A,,Clear,200,2013-08-03 09:53:00
6:53 AM,70.0,63.0,78,29.85,10.0,SSW,4.6,-,N/A,,Clear,210,2013-08-03 10:53:00
7:53 AM,70.0,61.0,73,29.87,10.0,Variable,3.5,-,N/A,,Scattered Clouds,0,2013-08-03 11:53:00
8:53 AM,70.0,61.0,73,29.87,10.0,SW,6.9,-,N/A,,Scattered Clouds,230,2013-08-03 12:53:00
9:53 AM,70.0,62.1,76,29.87,10.0,Variable,6.9,-,0.00,Rain,Light Rain,0,2013-08-03 13:53:00
10:53 AM,70.0,63.0,78,29.88,10.0,Variable,5.8,-,0.00,Rain,Light Rain,0,2013-08-03 14:53:00
11:53 AM,70.0,63.0,78,29.87,10.0,Variable,3.5,-,0.00,Rain,Light Rain,0,2013-08-03 15:53:00
12:53 PM,69.1,64.0,84,29.87,9.0,Variable,3.5,-,0.00,Rain,Light Rain,0,2013-08-03 16:53:00
1:53 PM,70.0,64.0,81,29.86,10.0,SSW,6.9,-,0.00,,Clear,210,2013-08-03 17:53:00
2:53 PM,71.1,64.9,81,29.86,10.0,SSW,5.8,-,N/A,,Clear,210,2013-08-03 18:53:00
3:53 PM,73.0,64.0,73,29.84,10.0,Variable,5.8,-,N/A,,Clear,0,2013-08-03 19:53:00
4:53 PM,72.0,64.0,76,29.82,10.0,SSW,9.2,-,N/A,,Partly Cloudy,200,2013-08-03 20:53:00
5:53 PM,72.0,64.0,76,29.82,10.0,SW,8.1,18.4,N/A,,Clear,220,2013-08-03 21:53:00
6:53 PM,72.0,64.0,76,29.81,10.0,Variable,3.5,-,N/A,,Clear,0,2013-08-03 22:53:00
7:53 PM,71.1,62.1,73,29.84,10.0,Calm,Calm,-,N/A,,Partly Cloudy,0,2013-08-03 23:53:00
8:53 PM,70.0,62.1,76,29.86,10.0,Calm,Calm,-,N/A,,Scattered Clouds,0,2013-08-04 00:53:00
9:53 PM,66.9,64.0,90,29.86,10.0,South,3.5,-,N/A,,Partly Cloudy,170,2013-08-04 01:53:00
10:53 PM,69.1,63.0,81,29.85,10.0,West,3.5,-,N/A,,Mostly Cloudy,270,2013-08-04 02:53:00
11:53 PM,68.0,62.1,81,29.85,10.0,West,4.6,-,N/A,,Clear,280,2013-08-04 03:53:00